| time (UTC) | temp F | wind direction | speed MPH | gust MPH | rain 1hr in | rain 24hr in | rain mn in | humidity % | barometer mb |
| 20260508030627 | 59 | 281 | 3.0 | 4.0 | 0.00 | 0.00 | 0.00 | 47 | 1014.3 |
| 20260508025645 | 62 | 290 | 2.0 | 4.0 | 0.00 | 0.00 | 0.00 | 42 | 1014.3 |
| 20260508024632 | 63 | 244 | 1.0 | 2.0 | 0.00 | 0.00 | 0.00 | 40 | 1014.3 |
| 20260508023619 | 65 | 244 | 2.0 | 3.0 | 0.00 | 0.00 | 0.00 | 39 | 1014.2 |
| 20260508022625 | 65 | 244 | 1.0 | 4.0 | 0.00 | 0.00 | 0.00 | 39 | 1014.0 |
| 20260508021613 | 67 | 229 | 2.0 | 3.0 | 0.00 | 0.00 | 0.00 | 38 | 1013.9 |
| 20260508020621 | 68 | 228 | 1.0 | 2.0 | 0.00 | 0.00 | 0.00 | 35 | 1013.9 |
| 20260508015618 | 69 | 228 | 0.0 | 3.0 | 0.00 | 0.00 | 0.00 | 35 | 1013.9 |
| 20260508014613 | 69 | 228 | 1.0 | 5.0 | 0.00 | 0.00 | 0.00 | 33 | 1013.9 |
| 20260508013623 | 70 | 226 | 4.0 | 6.0 | 0.00 | 0.00 | 0.00 | 32 | 1013.9 |
| 20260508012631 | 70 | 229 | 3.0 | 7.0 | 0.00 | 0.00 | 0.00 | 31 | 1013.9 |
| 20260508011620 | 70 | 241 | 3.0 | 7.0 | 0.00 | 0.00 | 0.00 | 32 | 1013.9 |
| 20260508010614 | 71 | 281 | 3.0 | 4.0 | 0.00 | 0.00 | 0.00 | 35 | 1013.9 |
| 20260508005614 | 71 | 257 | 4.0 | 6.0 | 0.00 | 0.00 | 0.00 | 33 | 1013.8 |
| 20260508004621 | 71 | 246 | 5.0 | 10.0 | 0.00 | 0.00 | 0.00 | 32 | 1013.8 |
| 20260508003629 | 72 | 248 | 3.0 | 4.0 | 0.00 | 0.00 | 0.00 | 28 | 1013.8 |
| 20260508002621 | 72 | 271 | 3.0 | 4.0 | 0.00 | 0.00 | 0.00 | 29 | 1013.9 |
| 20260508001613 | 71 | 191 | 2.0 | 8.0 | 0.00 | 0.00 | 0.00 | 30 | 1014.1 |
| 20260508000621 | 71 | 267 | 5.0 | 8.0 | 0.00 | 0.00 | 0.00 | 31 | 1014.3 |
| 20260507235619 | 71 | 287 | 2.0 | 8.0 | 0.00 | 0.00 | 0.00 | 28 | 1014.3 |
| 20260507234614 | 71 | 257 | 3.0 | 7.0 | 0.00 | 0.00 | 0.00 | 29 | 1014.5 |
| 20260507233624 | 71 | 261 | 3.0 | 7.0 | 0.00 | 0.00 | 0.00 | 31 | 1014.6 |
| 20260507232652 | 70 | 313 | 4.0 | 10.0 | 0.00 | 0.00 | 0.00 | 29 | 1014.6 |
| 20260507231619 | 69 | 306 | 3.0 | 7.0 | 0.00 | 0.00 | 0.00 | 32 | 1014.7 |
| 20260507230630 | 68 | 274 | 7.0 | 9.0 | 0.00 | 0.00 | 0.00 | 32 | 1014.8 |
| 20260507225631 | 68 | 247 | 3.0 | 8.0 | 0.00 | 0.00 | 0.00 | 34 | 1015.0 |
| 20260507224617 | 68 | 264 | 3.0 | 10.0 | 0.00 | 0.00 | 0.00 | 37 | 1015.2 |
| 20260507223626 | 68 | 245 | 6.0 | 10.0 | 0.00 | 0.00 | 0.00 | 35 | 1015.3 |
| 20260507222618 | 68 | 218 | 8.0 | 11.0 | 0.00 | 0.00 | 0.00 | 29 | 1015.3 |
| 20260507221626 | 68 | 223 | 5.0 | 11.0 | 0.00 | 0.00 | 0.00 | 34 | 1015.4 |
| 20260507220614 | 69 | 281 | 7.0 | 11.0 | 0.00 | 0.00 | 0.00 | 32 | 1015.4 |
| 20260507215614 | 69 | 279 | 7.0 | 13.0 | 0.00 | 0.00 | 0.00 | 33 | 1015.5 |
| 20260507214641 | 70 | 263 | 10.0 | 16.0 | 0.00 | 0.00 | 0.00 | 31 | 1015.4 |
| 20260507213631 | 71 | 263 | 9.0 | 15.0 | 0.00 | 0.00 | 0.00 | 28 | 1015.6 |
| 20260507212619 | 70 | 226 | 7.0 | 13.0 | 0.00 | 0.00 | 0.00 | 30 | 1015.8 |
| 20260507211627 | 70 | 251 | 8.0 | 19.0 | 0.00 | 0.00 | 0.00 | 27 | 1015.9 |
| 20260507210621 | 71 | 186 | 10.0 | 18.0 | 0.00 | 0.00 | 0.00 | 26 | 1016.1 |
| 20260507205623 | 69 | 214 | 12.0 | 17.0 | 0.00 | 0.00 | 0.00 | 27 | 1016.1 |
| 20260507204632 | 70 | 240 | 8.0 | 17.0 | 0.00 | 0.00 | 0.00 | 29 | 1016.1 |
| 20260507203622 | 70 | 243 | 8.0 | 16.0 | 0.00 | 0.00 | 0.00 | 28 | 1016.2 |
| 20260507202615 | 69 | 219 | 8.0 | 15.0 | 0.00 | 0.00 | 0.00 | 29 | 1016.4 |
| 20260507201623 | 68 | 229 | 7.0 | 12.0 | 0.00 | 0.00 | 0.00 | 29 | 1016.4 |
| 20260507200651 | 68 | 239 | 8.0 | 16.0 | 0.00 | 0.00 | 0.00 | 30 | 1016.5 |
| 20260507195631 | 67 | 240 | 6.0 | 15.0 | 0.00 | 0.00 | 0.00 | 29 | 1016.6 |
| 20260507194625 | 67 | 192 | 7.0 | 12.0 | 0.00 | 0.00 | 0.00 | 30 | 1016.7 |
| 20260507193636 | 67 | 202 | 8.0 | 16.0 | 0.00 | 0.00 | 0.00 | 28 | 1016.8 |
| 20260507192626 | 67 | 240 | 9.0 | 11.0 | 0.00 | 0.00 | 0.00 | 28 | 1016.9 |
| 20260507191618 | 67 | 222 | 6.0 | 12.0 | 0.00 | 0.00 | 0.00 | 29 | 1016.9 |
| 20260507190613 | 68 | 213 | 10.0 | 15.0 | 0.00 | 0.00 | 0.00 | 28 | 1016.8 |
| 20260507185632 | 68 | 200 | 9.0 | 15.0 | 0.00 | 0.00 | 0.00 | 27 | 1016.9 |
| 20260507184618 | 67 | 202 | 9.0 | 12.0 | 0.00 | 0.00 | 0.00 | 28 | 1017.0 |
| 20260507183627 | 68 | 198 | 10.0 | 16.0 | 0.00 | 0.00 | 0.00 | 28 | 1017.0 |
| 20260507182621 | 67 | 294 | 4.0 | 8.0 | 0.00 | 0.00 | 0.00 | 30 | 1017.0 |
| 20260507181628 | 66 | 243 | 3.0 | 7.0 | 0.00 | 0.00 | 0.00 | 30 | 1017.2 |
| 20260507180621 | 66 | 214 | 2.0 | 10.0 | 0.00 | 0.00 | 0.00 | 32 | 1017.3 |
| 20260507175622 | 64 | 261 | 2.0 | 6.0 | 0.00 | 0.00 | 0.00 | 40 | 1017.4 |
| 20260507174650 | 63 | 286 | 2.0 | 4.0 | 0.00 | 0.00 | 0.00 | 46 | 1017.4 |
| 20260507173618 | 63 | 261 | 2.0 | 4.0 | 0.00 | 0.00 | 0.00 | 43 | 1017.4 |
| 20260507172630 | 62 | 234 | 3.0 | 4.0 | 0.00 | 0.00 | 0.00 | 45 | 1017.5 |
| 20260507171617 | 60 | 250 | 1.0 | 3.0 | 0.00 | 0.00 | 0.00 | 48 | 1017.7 |
| 20260507170624 | 58 | 232 | 2.0 | 4.0 | 0.00 | 0.00 | 0.00 | 46 | 1017.8 |
| 20260507165625 | 58 | 248 | 1.0 | 4.0 | 0.00 | 0.00 | 0.00 | 46 | 1017.9 |
| 20260507164615 | 58 | 343 | 3.0 | 4.0 | 0.00 | 0.00 | 0.00 | 45 | 1018.1 |
| 20260507163622 | 56 | 137 | 1.0 | 3.0 | 0.00 | 0.00 | 0.00 | 48 | 1018.3 |
| 20260507162650 | 56 | 121 | 1.0 | 4.0 | 0.00 | 0.00 | 0.00 | 49 | 1018.4 |
| 20260507161639 | 54 | 244 | 2.0 | 3.0 | 0.00 | 0.00 | 0.00 | 54 | 1018.5 |
| 20260507160613 | 52 | 285 | 1.0 | 3.0 | 0.00 | 0.00 | 0.00 | 54 | 1018.6 |
| 20260507155613 | 51 | 285 | 2.0 | 4.0 | 0.00 | 0.00 | 0.00 | 55 | 1018.7 |
| 20260507154639 | 50 | 288 | 3.0 | 5.0 | 0.00 | 0.00 | 0.00 | 59 | 1018.9 |
| 20260507153627 | 50 | 287 | 4.0 | 8.0 | 0.00 | 0.00 | 0.00 | 60 | 1019.0 |
| 20260507152616 | 49 | 284 | 4.0 | 7.0 | 0.00 | 0.00 | 0.00 | 62 | 1019.0 |
| 20260507151628 | 48 | 284 | 5.0 | 7.0 | 0.00 | 0.00 | 0.00 | 63 | 1019.0 |
| 20260507150618 | 48 | 273 | 3.0 | 4.0 | 0.00 | 0.00 | 0.00 | 64 | 1019.0 |
| 20260507145619 | 48 | 290 | 2.0 | 3.0 | 0.00 | 0.00 | 0.00 | 63 | 1019.0 |
| 20260507144626 | 47 | 299 | 2.0 | 3.0 | 0.00 | 0.00 | 0.00 | 66 | 1019.0 |
| 20260507143619 | 46 | 314 | 1.0 | 3.0 | 0.00 | 0.00 | 0.00 | 68 | 1019.2 |
| 20260507142627 | 44 | 317 | 0.0 | 3.0 | 0.00 | 0.00 | 0.00 | 73 | 1019.2 |
| 20260507141615 | 43 | 321 | 2.0 | 4.0 | 0.00 | 0.00 | 0.00 | 76 | 1019.2 |
| 20260507140629 | 41 | 259 | 1.0 | 3.0 | 0.00 | 0.00 | 0.00 | 76 | 1019.2 |
| 20260507135648 | 40 | 259 | 1.0 | 2.0 | 0.00 | 0.00 | 0.00 | 79 | 1019.2 |
| 20260507134616 | 39 | 259 | 1.0 | 3.0 | 0.00 | 0.00 | 0.00 | 81 | 1019.3 |
| 20260507133623 | 38 | 259 | 0.0 | 1.0 | 0.00 | 0.00 | 0.00 | 82 | 1019.2 |
| 20260507132618 | 37 | 259 | 0.0 | 3.0 | 0.00 | 0.00 | 0.00 | 82 | 1019.2 |
| 20260507131629 | 37 | 287 | 2.0 | 3.0 | 0.00 | 0.00 | 0.00 | 82 | 1019.3 |
| 20260507130616 | 37 | 287 | 2.0 | 3.0 | 0.00 | 0.00 | 0.00 | 84 | 1019.3 |
| 20260507125617 | 36 | 308 | 2.0 | 3.0 | 0.00 | 0.00 | 0.00 | 85 | 1019.3 |
| 20260507124629 | 36 | 261 | 1.0 | 3.0 | 0.00 | 0.00 | 0.00 | 84 | 1019.4 |
| 20260507123617 | 36 | 262 | 1.0 | 2.0 | 0.00 | 0.00 | 0.00 | 85 | 1019.5 |
| 20260507122626 | 36 | 262 | 1.0 | 2.0 | 0.00 | 0.00 | 0.00 | 84 | 1019.6 |
| 20260507121615 | 36 | 262 | 0.0 | 2.0 | 0.00 | 0.00 | 0.00 | 85 | 1019.6 |
| 20260507120629 | 36 | 262 | 0.0 | 2.0 | 0.00 | 0.00 | 0.00 | 85 | 1019.5 |
| 20260507115628 | 35 | 262 | 0.0 | 1.0 | 0.00 | 0.00 | 0.00 | 85 | 1019.2 |
| 20260507114618 | 35 | 262 | 1.0 | 4.0 | 0.00 | 0.00 | 0.00 | 84 | 1019.3 |
| 20260507113646 | 36 | 281 | 1.0 | 2.0 | 0.00 | 0.00 | 0.00 | 84 | 1019.2 |
| 20260507112652 | 36 | 281 | 0.0 | 0.0 | 0.00 | 0.00 | 0.00 | 84 | 1019.2 |
| 20260507111623 | 36 | 281 | 0.0 | 0.0 | 0.00 | 0.00 | 0.00 | 83 | 1019.3 |
| 20260507110631 | 36 | 281 | 0.0 | 0.0 | 0.00 | 0.00 | 0.00 | 83 | 1019.4 |
| 20260507105613 | 36 | 281 | 1.0 | 3.0 | 0.00 | 0.00 | 0.00 | 83 | 1019.3 |
| 20260507104624 | 36 | 281 | 0.0 | 0.0 | 0.00 | 0.00 | 0.00 | 82 | 1019.4 |
| 20260507103619 | 36 | 281 | 1.0 | 2.0 | 0.00 | 0.00 | 0.00 | 82 | 1019.4 |
| 20260507102630 | 37 | 281 | 2.0 | 3.0 | 0.00 | 0.00 | 0.00 | 81 | 1019.5 |
| 20260507101619 | 36 | 281 | 1.0 | 2.0 | 0.00 | 0.00 | 0.00 | 82 | 1019.5 |
| 20260507100614 | 36 | 281 | 1.0 | 2.0 | 0.00 | 0.00 | 0.00 | 81 | 1019.5 |
| 20260507095615 | 36 | 281 | 1.0 | 3.0 | 0.00 | 0.02 | 0.00 | 81 | 1019.4 |
| 20260507094641 | 36 | 282 | 2.0 | 3.0 | 0.00 | 0.02 | 0.00 | 80 | 1019.6 |
| 20260507093628 | 37 | 298 | 1.0 | 2.0 | 0.00 | 0.02 | 0.00 | 78 | 1019.6 |
| 20260507092620 | 38 | 298 | 1.0 | 2.0 | 0.00 | 0.02 | 0.00 | 77 | 1019.7 |
| 20260507091630 | 39 | 298 | 0.0 | 0.0 | 0.00 | 0.02 | 0.00 | 75 | 1019.7 |
| 20260507090617 | 39 | 298 | 0.0 | 0.0 | 0.00 | 0.02 | 0.00 | 76 | 1019.9 |
| 20260507085618 | 39 | 298 | 0.0 | 1.0 | 0.00 | 0.02 | 0.00 | 76 | 1020.1 |
| 20260507084630 | 39 | 298 | 0.0 | 1.0 | 0.00 | 0.02 | 0.00 | 76 | 1020.0 |
| 20260507083620 | 39 | 298 | 0.0 | 2.0 | 0.00 | 0.02 | 0.00 | 75 | 1019.9 |
| 20260507082628 | 39 | 298 | 0.0 | 2.0 | 0.00 | 0.02 | 0.00 | 76 | 1020.2 |
| 20260507081636 | 38 | 298 | 1.0 | 3.0 | 0.00 | 0.02 | 0.00 | 76 | 1020.3 |
| 20260507080643 | 39 | 298 | 1.0 | 5.0 | 0.00 | 0.02 | 0.00 | 73 | 1020.2 |
| 20260507075627 | 41 | 213 | 2.0 | 4.0 | 0.00 | 0.08 | 0.00 | 68 | 1020.2 |
| 20260507074616 | 42 | 196 | 2.0 | 3.0 | 0.00 | 0.08 | 0.00 | 68 | 1020.2 |
| 20260507073624 | 42 | 196 | 0.0 | 0.0 | 0.00 | 0.08 | 0.00 | 67 | 1020.3 |
| 20260507072617 | 42 | 196 | 0.0 | 2.0 | 0.00 | 0.08 | 0.00 | 68 | 1020.4 |
| 20260507071645 | 42 | 196 | 1.0 | 3.0 | 0.00 | 0.08 | 0.00 | 65 | 1020.5 |
| 20260507070613 | 42 | 196 | 2.0 | 2.0 | 0.00 | 0.08 | 0.00 | 66 | 1020.5 |
| 20260507065612 | 42 | 196 | 1.0 | 3.0 | 0.00 | 0.08 | 0.00 | 69 | 1020.4 |
| 20260507064620 | 41 | 259 | 2.0 | 2.0 | 0.00 | 0.08 | 0.00 | 71 | 1020.4 |
| 20260507063619 | 41 | 258 | 1.0 | 3.0 | 0.00 | 0.08 | 0.00 | 70 | 1020.4 |
| 20260507062630 | 42 | 258 | 1.0 | 3.0 | 0.00 | 0.08 | 0.00 | 68 | 1020.4 |
| 20260507061620 | 42 | 258 | 0.0 | 1.0 | 0.00 | 0.08 | 0.00 | 66 | 1020.4 |
| 20260507060615 | 42 | 258 | 0.0 | 2.0 | 0.00 | 0.08 | 0.00 | 66 | 1020.4 |
| 20260507055618 | 42 | 258 | 1.0 | 2.0 | 0.00 | 0.08 | 0.08 | 66 | 1020.4 |
| 20260507054645 | 43 | 258 | 1.0 | 4.0 | 0.00 | 0.08 | 0.08 | 65 | 1020.4 |
| 20260507053632 | 44 | 258 | 2.0 | 4.0 | 0.00 | 0.08 | 0.08 | 63 | 1020.5 |
| 20260507052619 | 45 | 134 | 1.0 | 5.0 | 0.00 | 0.08 | 0.08 | 61 | 1020.3 |
| 20260507051625 | 45 | 162 | 2.0 | 4.0 | 0.00 | 0.08 | 0.08 | 62 | 1020.2 |
| 20260507050617 | 46 | 162 | 1.0 | 2.0 | 0.00 | 0.08 | 0.08 | 60 | 1020.2 |
| 20260507045617 | 47 | 130 | 0.0 | 3.0 | 0.00 | 0.08 | 0.08 | 58 | 1020.2 |
| 20260507044625 | 47 | 130 | 1.0 | 2.0 | 0.00 | 0.08 | 0.08 | 57 | 1020.3 |
| 20260507043616 | 47 | 130 | 0.0 | 1.0 | 0.00 | 0.08 | 0.08 | 56 | 1020.3 |
| 20260507042624 | 48 | 130 | 1.0 | 2.0 | 0.00 | 0.08 | 0.08 | 54 | 1020.3 |
| 20260507041614 | 49 | 130 | 0.0 | 1.0 | 0.00 | 0.08 | 0.08 | 53 | 1020.1 |
| 20260507040621 | 49 | 130 | 1.0 | 3.0 | 0.00 | 0.08 | 0.08 | 53 | 1020.1 |
| 20260507035626 | 49 | 181 | 1.0 | 3.0 | 0.00 | 0.08 | 0.08 | 53 | 1020.1 |
| 20260507034614 | 50 | 181 | 2.0 | 3.0 | 0.00 | 0.08 | 0.08 | 51 | 1019.9 |
| 20260507033622 | 51 | 182 | 0.0 | 2.0 | 0.00 | 0.08 | 0.08 | 48 | 1019.9 |
| 20260507032613 | 51 | 182 | 1.0 | 3.0 | 0.00 | 0.08 | 0.08 | 49 | 1019.9 |
| 20260507031626 | 51 | 180 | 1.0 | 7.0 | 0.00 | 0.08 | 0.08 | 49 | 1019.7 |